GW5674 Weather Reports


time (UTC)temp
C
wind
direction
speed
KPH
gust
KPH
rain 1hr
cm
rain 24hr
cm
rain mn
cm
humidity
%
barometer
mb
20260504232802 25 158 3.2 0.0 0.00 0.00 0.00 51 1014.2
20260504231302 25 248 3.2 0.0 0.00 0.00 0.00 48 1014.2
20260504225802 26 203 1.6 0.0 0.00 0.00 0.00 50 1014.6
20260504224302 26 113 3.2 0.0 0.00 0.00 0.00 46 1014.6
20260504222803 26 203 3.2 0.0 0.00 0.00 0.00 47 1014.9
20260504221302 26 203 11.3 0.0 0.00 0.00 0.00 46 1014.9
20260504215804 26 203 6.4 0.0 0.00 0.00 0.00 45 1014.9
20260504214307 27 203 6.4 0.0 0.00 0.00 0.00 45 1015.2
20260504213305 26 248 3.2 0.0 0.00 0.00 0.00 46 1015.2
20260504212303 26 203 8.0 0.0 0.00 0.00 0.00 45 1015.6
20260504205802 26 225 6.4 0.0 0.00 0.00 0.00 44 1015.9
20260504204307 26 203 4.8 0.0 0.00 0.00 0.00 43 1015.9
20260504203302 27 225 8.0 0.0 0.00 0.00 0.00 46 1015.9
20260504201805 27 225 4.8 0.0 0.00 0.00 0.00 45 1016.6
20260504200803 27 135 8.0 0.0 0.00 0.00 0.00 44 1016.6
20260504195304 26 113 9.7 0.0 0.00 0.00 0.00 45 1016.9
20260504193803 26 180 11.3 0.0 0.00 0.00 0.00 43 1017.3
20260504192304 26 203 3.2 0.0 0.00 0.00 0.00 43 1017.3
20260504185304 26 135 3.2 0.0 0.00 0.00 0.00 41 1017.6
20260504183802 26 225 9.7 0.0 0.00 0.00 0.00 42 1017.9
20260504182304 26 90 6.4 0.0 0.00 0.00 0.00 41 1017.6
20260504180802 26 203 4.8 0.0 0.00 0.00 0.00 45 1017.9
20260504173802 25 203 11.3 0.0 0.00 0.00 0.00 41 1018.6
20260504170802 25 158 6.4 0.0 0.00 0.00 0.00 42 1018.6
20260504150801 22 90 4.8 0.0 0.00 0.00 0.00 55 1019.0
20260504141302 21 203 3.2 0.0 0.00 0.00 0.00 65 1019.6
20260504050307 12 203 0.0 0.0 0.00 0.00 0.00 90 1020.0
20260504045307 12 203 0.0 0.0 0.00 0.00 0.00 88 1020.3
20260504042802 12 203 0.0 0.0 0.00 0.00 0.00 87 1020.3
20260504041307 13 203 0.0 0.0 0.00 0.00 0.00 87 1020.3
20260504035802 13 203 0.0 0.0 0.00 0.00 0.00 88 1020.3
20260504034303 13 203 0.0 0.0 0.00 0.00 0.00 86 1020.3
20260504032802 13 203 0.0 0.0 0.00 0.00 0.00 86 1020.3
20260504030802 14 203 0.0 0.0 0.00 0.00 0.00 85 1020.3
20260504024802 14 203 0.0 0.0 0.00 0.00 0.00 83 1020.3
20260504022803 15 203 0.0 0.0 0.00 0.00 0.00 82 1020.0
20260504021802 15 203 1.6 0.0 0.00 0.00 0.00 80 1020.0
20260504020303 15 225 0.0 0.0 0.00 0.00 0.00 79 1019.6
20260504014802 16 203 0.0 0.0 0.00 0.00 0.00 77 1019.6
20260504013302 16 203 0.0 0.0 0.00 0.00 0.00 76 1019.6
20260504011803 17 203 0.0 0.0 0.00 0.00 0.00 71 1019.3
20260504003302 22 203 0.0 0.0 0.00 0.00 0.00 60 1019.3
20260504001803 22 225 1.6 0.0 0.00 0.00 0.00 60 1019.3
20260504000302 22 225 0.0 0.0 0.00 0.00 0.00 61 1019.3
20260503234802 23 203 0.0 0.0 0.00 0.00 0.00 56 1019.3
20260503233306 25 203 1.6 0.0 0.00 0.00 0.00 45 1019.6